Flag for Germany Weather past 2 weeks in Neumünster, Schleswig-Holstein, Germany

Now
65 °F

Sunny.


Feels Like: 65 °F
Forecast: 51 / 72 °F
Wind: 3 mph from South

Location: Itzehoe

Current Time: Aug 1, 2015 at 2:37:13 PM

Latest Report: Aug 1, 2015 at 1:00 PM


Visibility: 16 mi

Pressure: 30.07 "Hg

Humidity: 54%

Dew point: 47 °F

Location of NeumünsterLocation

Historic Weather in Neumünster — Graph

°F

Neumünster temperature yesterday

Maximum temperature yesterday: 60 °F (at 3:00 PM)
Minimum temperature yesterday: 50 °F (at 10:00 PM)
Average temperature yesterday: 56 °F

Past Weeks' High & Low Weather Summary

 TemperatureHumidityPressure
High80 °F (Jul 17, 4:00 PM)100% (Jul 24, 1:00 AM)30.10 "Hg (Jul 24, 1:00 AM)
Low39 °F (Aug 1, 6:00 AM)48% (Jul 24, 4:00 PM)29.41 "Hg (Jul 25, 1:00 PM)
Average60 °F81%29.80 "Hg
* Reported Jul 17 1:00 PM — Aug 1 1:00 PM, Neumünster, Weather by CustomWeather, © 2015

Note: Actual official high and low records may vary slightly from our data, if they occured in-between our weather recording intervals... More about our weather records

Advertising

Neumünster weather history for previous 24 hours

 ConditionsComfort  
Time TempWeatherWind HumidityBarometerVisibility
1:00 PM
Sat, Aug 1
65 °FSunny.3 mph54%30.07 "Hg16 mi
12:00 PM64 °FPassing clouds.2 mph55%30.07 "Hg19 mi
10:00 AM58 °FSunny.3 mph65%30.08 "Hg25 mi
9:00 AM55 °FSunny.2 mph74%30.09 "Hg11 mi
7:00 AM45 °FSunny.1 mph97%30.09 "Hg6 mi
6:00 AM39 °FSunny.2 mph100%30.09 "Hg3 mi
4:00 AM42 °FClear.No wind99%30.10 "Hg14 mi
3:00 AM41 °FClear.1 mph99%30.10 "Hg16 mi
1:00 AM44 °FClear.No wind100%30.10 "Hg2 mi
12:00 AM45 °FClear.1 mph99%30.09 "Hg15 mi
10:00 PM
Fri, Jul 31
50 °FClear.1 mph92%30.09 "Hg19 mi
9:00 PM56 °FScattered clouds.1 mph71%30.09 "Hg28 mi
7:00 PM58 °FOvercast.2 mph66%30.09 "Hg28 mi
6:00 PM58 °FPassing clouds.5 mph58%30.09 "Hg22 mi
4:00 PM60 °FOvercast.5 mph57%30.09 "Hg14 mi
3:00 PM60 °FPartly sunny.5 mph55%30.09 "Hg11 mi
Weather by CustomWeather, © 2015

See weather overviewHow to use our weather pages